TITAN 3C TRANSTAGE DEB, 19595

Orbit data source: Space-Track

TITAN 3C TRANSTAGE DEB, 19595 is space debris in HEO originally from a launch on Tue, 21 Dec 1965 UTC launched from the Air Force Eastern Test Range (AFETR). Debris objects in space refer to the collection of defunct objects orbiting the Earth. Examples of debris include non-operational satellites, rocket bodies, and fragments generated from explosions, collisions, or faulty payload assembly.

Loading next visibility...
TITAN 3C TRANSTAGE DEB details
Identifier
19595, 1965-108AB
Orbit
HEO
Last TLE update1 week ago
Origin
Flag of USUSAF SSD (US)
ManufacturerUnknown
MissionSpacecraft
Bus & MotorUnknown
MassUnknown
Launch date (UTC)
1965-12-21 (59 years ago)
Launch vehicleUnknown
Launch site
Air Force Eastern Test Range (AFETR)
Object type
Payload
Rocket body
Debris
Shape & HBRUnknown
Radar Cross SectionSmall (<0.1 m²)

Expand to show TLE details & history

TLE from 1 week ago
0 TITAN 3C TRANSTAGE DEB
1 19595U 65108AB  24348.39444933  .00002717  00000-0  21097-2 0  9997
2 19595  26.9403 191.7142 5983014 232.4810  56.7147  3.97965296421665
Epoch: 2024-12-13T09:28Z
Definitive object data (Epoch: 2024-12-13T09:28:00.422Z)
Latitude-0.00009°
Longitude-32.84041°
Altitude10,608.303 km
Speed4.82 km/s
True Right ascension12h 46m 53s
True Declination0° 00' 00"
Sunlit
Object was in daylight at TLE epoch
Visualization TLE readout
Latitude11.47897°
Longitude-15.74555°
Altitude14,264.453 km
Speed3.863 km/s
Apparent Right ascension14h 19m 01s
Apparent Declination0° 04' 03"
Sunlit
Object is in daylight
Visualization observer readout
Local Sidereal Time04:00:15
Azimuth36.343° NE
Elevation-43.839°
Doppler factor1
Orbital elements
Apogee altitude20,511.706 km
Perigee altitude380.045 km
Semi-major axis16,824.013 km
Eccentricity0.5983014
Inclination26.9403°
RAAN191.7142°
Arg. of periapsis232.481°
True anomaly127.53731°
Mean anomaly56.7147°
Eccentric anomaly90.98973°
Mean motion0.9946 °/min
BSTAR0.0021097
Orbital period361.95 mins
Loading maneuver chart data...

TITAN 3C TRANSTAGE DEB Visibility forecast

Observer location: undefined°, undefined

Span
Click to sort rows by Start time (UTC) header in descending order
Start Az.
Max El. time (UTC)
Max El. Az.
Max El.
End time (UTC)
End Az.
198 mins2024-12-22 10:27:44.754Z118.319° SE2024-12-22 12:15:44.754Z85.245° E16.36°2024-12-22 13:45:44.754Z75.217° E
287 mins2024-12-22 16:27:44.754Z238.388° WSW2024-12-22 20:16:44.754Z199.078° SSW43.211°2024-12-22 21:14:44.754Z121.284° SE
|